Regional Weather Roundup
Issued by NWS

Home | Current Version | Previous Version | Graphics & Text | Print | Product List | Glossary On
Versions: 1 2 3 4 5 6 7 8 9 10 11 12 13 14 15 16 17 18 19 20 21 22 23 24 25 26 27 28 29 30 31 32 33 34 35 36 37 38 39 40 41 42 43 44 45 46 47 48 49 50
000
ASUS43 KLOT 230103
RWRIL

ILLINOIS REGIONAL WEATHER ROUNDUP
NATIONAL WEATHER SERVICE CHICAGO/ROMEOVILLE IL
800 PM CDT FRI JUL 22 2016

NOTE: "FAIR" INDICATES FEW OR NO CLOUDS BELOW 12,000 FEET WITH NO
SIGNIFICANT WEATHER AND/OR OBSTRUCTIONS TO VISIBILITY.

* THESE STATIONS ARE NOT UNDER NWS QUALITY CONTROL. THEY ALSO MAY NOT
  REPORT WEATHER SUCH AS PRECIPITATION OR FOG.

ILZ001-002-007-009-015-016-024-230200-
NORTHWEST ILLINOIS

CITY           SKY/WX    TMP DP  RH WIND       PRES   REMARKS
MOLINE         MOCLDY    85  77  77 SW3       29.98R HX  95
STERLING*      MOCLDY    82  78  88 SW3       29.99R HX  91
SAVANNA*       PTCLDY    83  76  80 SW3       29.98S HX  90
$$

ILZ003-004-008-010-011-017-018-230200-
NORTH CENTRAL ILLINOIS

CITY           SKY/WX    TMP DP  RH WIND       PRES   REMARKS
ROCKFORD       PTCLDY    85  76  74 W3        29.99R HX  94
FREEPORT*      CLEAR     82  76  82 SW5       30.01R HX  88
ROCHELLE*      PTCLDY    81  78  90 CALM      29.99S HX  89
DE KALB*       CLEAR     83  76  80 NW3       30.00R HX  91
$$

ILZ005-006-012>014-019>023-230200-
NORTHEAST ILLINOIS

CITY           SKY/WX    TMP DP  RH WIND       PRES   REMARKS
CHICAGO-OHARE  PTCLDY    86  75  69 W7        29.96S HX  95
CHICAGO-MIDWAY PTCLDY    89  74  60 CALM      29.96S HX  98
AURORA         CLEAR     84  78  82 CALM      29.98S HX  95
LANSING*       PTCLDY    83  74  72 SW5       29.97S HX  90
WAUKEGAN       CLEAR     81  73  76 S3        29.96S HX  86
DUPAGE AIRPORT CLEAR     84  75  74 NW5       29.98R HX  92
WHEELING       PTCLDY    88  74  63 NW6       29.97S HX  96
MORRIS*        CLEAR     83  76  81 CALM      29.97S HX  91
NORTHERLY ISL    N/A     78  71  79 S2          N/A  HX  80
$$

LMZ740>746-230200-
SOUTHERN LAKE MICHIGAN

STATION/POSITION SKY/WX   TEMP    WIND        PRES    VSBY  WAVE
                          AIR SEA DIR/SP/G                  HT/PER
                          (F)     (DEG/KT/KT) (MB)    (MI)  (FT/S)
SOUTHERN BUOY              76 75  190/  2/  2 1014.2          0
WILMETTE HARBOR            78 74  190/  4/  6   N/A           0
HARRISON CRIB              83     140/  7/  7   N/A
BURNHAM HARBOR             77     160/  2/  3   N/A
CALUMET HARBOR             79                   N/A
BURNS HARBOR               84      70/  4/  5 1015.2S
MICHIGAN CITY              81      40/  2/  2   N/A
MICHIGAN CITY 6N           80 78   90/  2/  4   N/A           1
ST. JOSEPH                 78 76  160/  2/  2 1014.6S         1
$$

ILZ025>027-034>036-040-047-049-050-058-095>099-230200-
WEST-CENTRAL ILLINOIS

CITY           SKY/WX    TMP DP  RH WIND       PRES   REMARKS
QUINCY         CLEAR     84  79  85 S3        30.00R HX  96
GALESBURG*     PTCLDY    82  77  83 CALM      30.00R HX  90
MACOMB*        CLEAR     82  78  88 S3        30.01F HX  90
JACKSONVILLE*  CLOUDY    82  77  84 S5        30.00S HX  89
PITTSFIELD*    PTCLDY    82  79  91 CALM      30.02S HX  92
$$

ILZ028>032-037-038-041>044-048-051>054-059>061-230200-
CENTRAL ILLINOIS

CITY           SKY/WX    TMP DP  RH WIND       PRES   REMARKS
PONTIAC        CLEAR     83  78  84 CALM      30.00S HX  93
BLOOMINGTON    CLEAR     82  75  79 SW6       30.02R HX  89
DECATUR        CLEAR     83  74  74 SE3       30.01R HX  89
PEORIA         CLEAR     84  76  76 SW5       29.99S HX  93
LACON*         CLEAR     83  76  78 CALM      29.98R HX  92
LINCOLN*       CLEAR     82  76  81 CALM      30.00S HX  90
SPRINGFIELD    CLEAR     83  75  77 S6        30.00S HX  90
TAYLORVILLE    CLEAR     80  76  88 CALM      30.00F HX  85
$$

ILZ033-039-045-046-055>057-062-063-230200-
EAST-CENTRAL ILLINOIS

CITY           SKY/WX    TMP DP  RH WIND       PRES   REMARKS
CHAMPAIGN      CLEAR     80  74  81 W3        30.02R HX  85
MATTOON        CLEAR     81  74  79 CALM      30.00R HX  86
PARIS*         CLEAR     79  77  94 CALM      30.01S HX  84
$$

ILZ079-100>102-230200-
SOUTHWEST ILLINOIS

CITY           SKY/WX    TMP DP  RH WIND       PRES   REMARKS
ALTON          MOCLDY    79  75  89 S6        30.01R HX  82
BELLEVILLE     CLOUDY    80  77  90 CALM      30.00R HX  85
CAHOKIA*       CLOUDY    83  73  72 SW3       30.00S HX  89
SPARTA*        CLOUDY    79  74  82 CALM      30.02S HX  83
$$

ILZ064>066-069>071-074>076-080>082-084>086-088>090-092>094-230200-
SOUTH-CENTRAL ILLINOIS

CITY           SKY/WX    TMP DP  RH WIND       PRES   REMARKS
CARBONDALE     MOCLDY    81  76  84 NW5       30.00R HX  87
CAIRO*         CLOUDY    82  79  91 CALM      29.99S HX  91
EFFINGHAM*     CLEAR     81  76  84 CALM      30.01F HX  88
MARION         CLOUDY    82  79  89 CALM      30.01R HX  93
MT. VERNON     PTCLDY    81  72  74 CALM      30.01R HX  84
CENTRALIA*     PTCLDY    81  76  86 NW3       30.00S HX  87
SALEM*         PTCLDY    81  76  85 CALM      30.00F HX  87
METROPOLIS*    CLOUDY    81  78  92 CALM      29.99S HX  89
$$

ILZ067-068-072-073-078-083-087-091-230200-
SOUTHEAST ILLINOIS

CITY           SKY/WX    TMP DP  RH WIND       PRES   REMARKS
LAWRENCEVILLE  CLEAR     82  76  81 CALM      30.00R HX  89
FLORA*         CLEAR     82  77  84 CALM      30.00S HX  90
FAIRFIELD*     PTCLDY    80  76  87 CALM      29.99S HX  85
HARRISBURG*    CLOUDY    82  79  89 CALM      29.99S HX  92
ROBINSON*      CLEAR     79  76  92 SW3       30.01R HX  83
CARMI*         MOCLDY    82  79  92 CALM      29.99R HX  91
$$

ABBREVIATIONS USED IN REMARKS
   TC - TEMPERATURE IN CELSIUS
  WCI - WIND CHILL INDEX
   HX - HEAT INDEX
  VSB - VISIBILITY
$$





USA.gov is the U.S. government's official web portal to all federal, state and local government web resources and services.